{"data":{"norad_id":53973,"intl_designator":"2022-125K","name":"STARLINK-5156","alt_names":[],"object_type":"PAYLOAD","status":"ACTIVE","operator":null,"country":"US","launch_date":"2022-10-05","launch_site_code":"AFWTR","launch_vehicle":null,"mission":null,"orbit_class":"UNKNOWN","rcs_meters":null,"size_class":null,"mass_kg":null,"dimensions":null,"purposes":["comms"],"wikipedia_slug":null,"has_3d_model":false,"image_url":null,"decayed_at":null,"tle_current":{"epoch":"2026-05-24T23:55:41.676096Z","epoch_age_seconds":72001,"freshness":"FRESH","line1":"1 53973U 22125K   26144.99701014  .00001927  00000+0  13915-3 0  9997","line2":"2 53973  53.2166 241.4414 0001581  87.5422 272.5751 15.08840643200847","mean_motion":15.08840643,"eccentricity":0.0001581,"inclination_deg":53.2166,"raan_deg":241.4414,"arg_perigee_deg":87.5422,"mean_anomaly_deg":272.5751,"bstar":0.00013915,"rev_number":20084,"period_min":95.437514006574,"perigee_km":538.64770699227,"apogee_km":540.8351401498,"semimajor_km":6917.878423571,"source":"CELESTRAK","updated_at":"2026-05-25T13:38:17.618214Z"}}}